Regional Weather Roundup
Issued by NWS Goodland, KS

Home | Current Version | Previous Version | Graphics & Text | Print | Product List | Glossary On
Versions: 1 2 3 4 5 6 7 8 9 10 11 12 13 14 15 16 17 18 19 20 21 22 23 24 25 26 27 28 29 30 31 32 33 34 35 36 37 38 39 40 41 42 43 44 45 46 47 48 49 50
000
ASUS43 KGLD 020008
RWRGLD

GOODLAND FORECAST AREA HOURLY WEATHER ROUNDUP
NATIONAL WEATHER SERVICE GOODLAND KS
600 PM MDT FRI AUG 01 2014

...OFFICIAL OBSERVATIONS...

CITY           SKY/WX    TMP DP  RH WIND       PRES   REMARKS
GOODLAND KS    PTSUNNY   84  46  26 SE8       30.16S
HILL CITY KS   SUNNY     90  48  23 NE10      30.08S
IMPERIAL NEB   SUNNY     88  46  23 E7        30.11F
MCCOOK NEB     MOSUNNY   85  56  37 SE7       30.10F
AKRON CO       PTSUNNY   81  45  28 SE12      30.20F
BURLINGTON CO  PTSUNNY   80  49  33 SE14G21   30.18S
LIMON CO       MOSUNNY   77  42  28 S13       30.26S
$$

...UNOFFICIAL OBSERVATIONS...

CITY           SKY/WX    TMP DP  RH WIND       PRES   REMARKS
COLBY KS         N/A     86  52  30 E9        30.13S HAZE
GOVE KS          N/A     85  32  15 MISG        N/A
LENORA KS        N/A     87  32  14 MISG        N/A
NORTON KS      SUNNY     88  46  23 E10       30.09R
WAKEENEY KS      N/A     91  43  18 MISG        N/A
KIT CARSON CO    N/A     82  47  29 N10         N/A
YUMA CO          N/A     82  46  27 CALM        N/A
$$


USA.gov is the U.S. government's official web portal to all federal, state and local government web resources and services.